| time (UTC) | temp C | wind direction | speed KPH | gust KPH | rain 1hr cm | rain 24hr cm | rain mn cm | humidity % | barometer mb |
| 20260507191133 | 17 | 112 | 0.0 | 0.0 | 0.00 | 0.00 | 0.00 | 62 | 1013.9 |
| 20260507190233 | 17 | 112 | 0.0 | 0.0 | 0.00 | 0.00 | 0.00 | 61 | 1014.1 |
| 20260507185333 | 18 | 90 | 0.0 | 3.2 | 0.00 | 0.00 | 0.00 | 58 | 1014.3 |
| 20260507183533 | 18 | 90 | 0.0 | 9.7 | 0.00 | 0.00 | 0.00 | 58 | 1014.0 |
| 20260507182633 | 18 | 90 | 4.8 | 9.7 | 0.00 | 0.00 | 0.00 | 56 | 1014.0 |
| 20260507181733 | 18 | 90 | 4.8 | 9.7 | 0.00 | 0.00 | 0.00 | 56 | 1013.8 |
| 20260507180833 | 19 | 112 | 3.2 | 6.4 | 0.00 | 0.00 | 0.00 | 55 | 1013.8 |
| 20260507175933 | 19 | 112 | 3.2 | 14.5 | 0.00 | 0.00 | 0.00 | 54 | 1013.6 |
| 20260507175033 | 20 | 112 | 4.8 | 9.7 | 0.00 | 0.00 | 0.00 | 53 | 1013.5 |
| 20260507173233 | 20 | 135 | 1.6 | 3.2 | 0.00 | 0.00 | 0.00 | 53 | 1013.7 |
| 20260507172333 | 20 | 338 | 0.0 | 3.2 | 0.00 | 0.00 | 0.00 | 52 | 1013.5 |
| 20260507171433 | 20 | 315 | 3.2 | 3.2 | 0.00 | 0.00 | 0.00 | 50 | 1013.6 |
| 20260507170533 | 20 | 112 | 0.0 | 11.3 | 0.00 | 0.00 | 0.00 | 51 | 1013.5 |
| 20260507165633 | 20 | 112 | 6.4 | 11.3 | 0.00 | 0.00 | 0.00 | 50 | 1013.3 |
| 20260507164733 | 20 | 112 | 3.2 | 9.7 | 0.00 | 0.00 | 0.00 | 49 | 1013.0 |
| 20260507162933 | 21 | 112 | 4.8 | 14.5 | 0.00 | 0.00 | 0.00 | 48 | 1012.9 |
| 20260507160233 | 22 | 158 | 8.0 | 20.9 | 0.00 | 0.00 | 0.00 | 47 | 1012.8 |
| 20260507155333 | 22 | 112 | 8.0 | 17.7 | 0.00 | 0.00 | 0.00 | 46 | 1012.6 |
| 20260507154433 | 23 | 135 | 6.4 | 12.9 | 0.00 | 0.00 | 0.00 | 43 | 1012.6 |
| 20260507153533 | 23 | 135 | 6.4 | 12.9 | 0.00 | 0.00 | 0.00 | 43 | 1012.7 |
| 20260507152633 | 23 | 135 | 6.4 | 22.5 | 0.00 | 0.00 | 0.00 | 43 | 1012.5 |
| 20260507150833 | 24 | 112 | 12.9 | 24.1 | 0.00 | 0.00 | 0.00 | 43 | 1012.5 |
| 20260507145033 | 24 | 112 | 9.7 | 33.8 | 0.00 | 0.00 | 0.00 | 42 | 1012.4 |